STARLINK-2704, 48643

Orbit data source: Space-Track

STARLINK-2704, 48643 is a payload satellite owned by SpaceX/Seattle (US) in LEO that was launched on Wed, 26 May 2021 UTC via an FALCON 9 launch vehicle from the Air Force Eastern Test Range (AFETR). Payload-class satellites include a variety of spacecraft equipped with specific instruments for various scientific and technological missions. These include communications satellites like Starlink; space stations such as the ISS; scientific satellites like the Hubble; Earth observation satellites from companies like Planet Labs, Umbra, and HawkEye 360; GPS; miniature CubeSats for education and research; and military/defense satellites.

Loading next visibility...
Identifier
48643, 2021-044F
Orbit
LEO
Country
Flag of USUS
Related business
Manufacturer
SpaceX/Seattle
Mission
Operational Commercial Communications
Bus & Motor
STARLINK, Unknown motor
Mass
260 kg wet, ~248 kg dry
Launch date (UTC)
2021-05-26 (5 years ago)
Launch vehicle
FALCON 9
Launch site
Air Force Eastern Test Range (AFETR)
Object type
Payload
Rocket body
Debris
Shape & HBR
Box + 1 Pan, 10.1 m
Radar Cross Section
13.562 m², Large (>1 m²)

Expand to show TLE details & history
Last TLE update: 17 hours ago

TLE from 17 hours ago
0 STARLINK-2704
1 48643U 21044F   25348.92050266  .00002961  00000-0  21770-3 0  9996
2 48643  53.0545 142.1541 0001258  98.7151 261.3980 15.06386172250931
Epoch: 2025-12-14T22:05Z
TLE epoch observation values (Epoch: 2025-12-14T22:05:31.429Z)
Latitude
-0.00008°
Longitude
86.94659°
Altitude
548.264 km
Speed
7.589 km/s
True Right ascension
09h 28m 36s
True Declination
0° 00' 00"
Sunlit
Object was in full shadow at epoch
Visualization orbit readout
Latitude
Unknown
Longitude
Unknown
Altitude
Unknown
Speed
Unknown
Apparent Right ascension
Unknown
Apparent Declination
Unknown
Sunlit
N/A
Visualization observer readout
Local Sidereal Time
13:18:56
Azimuth
Unknown
Elevation
Unknown
Doppler factor
Unknown
Orbital elements
Apogee altitude
548.396 km
Perigee altitude
546.653 km
Semi-major axis
6,925.662 km
Eccentricity
0.00013
Inclination
53.0545°
RAAN
142.1541°
Arg. of periapsis
98.7151°
True anomaly
261.38375°
Mean anomaly
261.398°
Eccentric anomaly
261.39087°
Mean motion
3.76575 °/min
Orbital period
95.6 mins
BSTAR
0.0002177
Loading maneuver chart data...
Computing Atmospheric mass density...
Loading historical data...
Loading historical data...
Loading historical data...
Loading historical data...
Loading historical data...
Loading historical data...
Loading historical data...

Documentation

Showing up to 5 results
|